Känerkinden
Datum - Zeit
TemperaturTaupunktFeuchteSolar Wind aus Richtung WindböenLuftdruck (QFF)RegenRegenstärkeTrend
03.09.2026 - 00.00Uhr18.0 °C12.2 °C69 %0.0 W/m²0.0 km/hWesten0.0 km/h1020.8 hPa0.0 mm0.0 mm/hwechselhaft
03.09.2026 - 00.05Uhr17.8 °C12.0 °C69 %0.0 W/m²0.0 km/hWesten0.0 km/h1020.8 hPa0.0 mm0.0 mm/hwechselhaft
03.09.2026 - 00.10Uhr17.7 °C12.1 °C70 %0.0 W/m²0.0 km/hWesten0.0 km/h1020.8 hPa0.0 mm0.0 mm/hwechselhaft
03.09.2026 - 00.15Uhr17.4 °C11.9 °C70 %0.0 W/m²0.0 km/hWesten0.0 km/h1020.8 hPa0.0 mm0.0 mm/hwechselhaft
03.09.2026 - 00.20Uhr17.2 °C12.1 °C72 %0.0 W/m²0.0 km/hNordwesten0.0 km/h1020.9 hPa0.0 mm0.0 mm/hwechselhaft
03.09.2026 - 00.25Uhr17.1 °C12.0 °C72 %0.0 W/m²0.0 km/hNordosten0.0 km/h1020.9 hPa0.0 mm0.0 mm/hwechselhaft
03.09.2026 - 00.30Uhr17.2 °C11.9 °C71 %0.0 W/m²0.0 km/hNordosten0.0 km/h1020.9 hPa0.0 mm0.0 mm/hwechselhaft
03.09.2026 - 00.35Uhr17.3 °C12.0 °C71 %0.0 W/m²0.0 km/hNordosten0.0 km/h1020.8 hPa0.0 mm0.0 mm/hwechselhaft
03.09.2026 - 00.40Uhr17.2 °C11.9 °C71 %0.0 W/m²0.0 km/hNordosten0.0 km/h1020.8 hPa0.0 mm0.0 mm/hwechselhaft
03.09.2026 - 00.45Uhr17.0 °C11.9 °C72 %0.0 W/m²0.0 km/hNordosten0.0 km/h1020.8 hPa0.0 mm0.0 mm/hwechselhaft
03.09.2026 - 00.50Uhr16.8 °C11.8 °C73 %0.0 W/m²0.0 km/hNordosten0.0 km/h1020.8 hPa0.0 mm0.0 mm/hwechselhaft
03.09.2026 - 00.55Uhr16.6 °C11.7 °C73 %0.0 W/m²0.0 km/hNordosten0.0 km/h1020.7 hPa0.0 mm0.0 mm/hwechselhaft
03.09.2026 - 01.00Uhr16.7 °C11.8 °C73 %0.0 W/m²0.0 km/hNordosten0.0 km/h1020.7 hPa0.0 mm0.0 mm/hwechselhaft
03.09.2026 - 01.05Uhr16.7 °C11.8 °C73 %0.0 W/m²0.0 km/hNordosten0.0 km/h1020.7 hPa0.0 mm0.0 mm/hwechselhaft
03.09.2026 - 01.10Uhr16.6 °C11.8 °C73 %0.0 W/m²0.0 km/hNordosten0.0 km/h1020.8 hPa0.0 mm0.0 mm/hwechselhaft
03.09.2026 - 01.15Uhr16.4 °C11.7 °C74 %0.0 W/m²2.8 km/hWest-NW6.5 km/h1020.9 hPa0.0 mm0.0 mm/hwechselhaft
03.09.2026 - 01.20Uhr16.5 °C11.5 °C72 %0.0 W/m²4.5 km/hWest-NW6.5 km/h1020.9 hPa0.0 mm0.0 mm/hwechselhaft
03.09.2026 - 01.25Uhr16.2 °C11.5 °C73 %0.0 W/m²4.2 km/hSüdwesten6.5 km/h1020.9 hPa0.0 mm0.0 mm/hwechselhaft
03.09.2026 - 01.30Uhr16.5 °C11.6 °C73 %0.0 W/m²2.9 km/hSüd-SW6.5 km/h1020.9 hPa0.0 mm0.0 mm/hwechselhaft
03.09.2026 - 01.35Uhr16.9 °C11.6 °C71 %0.0 W/m²2.4 km/hSüd-SW4.7 km/h1020.9 hPa0.0 mm0.0 mm/hwechselhaft
03.09.2026 - 01.40Uhr16.7 °C11.6 °C72 %0.0 W/m²1.9 km/hSüd-SW3.2 km/h1020.9 hPa0.0 mm0.0 mm/hwechselhaft
03.09.2026 - 01.45Uhr16.6 °C11.5 °C72 %0.0 W/m²3.0 km/hSüd-SW4.7 km/h1020.9 hPa0.0 mm0.0 mm/hwechselhaft
03.09.2026 - 01.50Uhr16.9 °C11.7 °C72 %0.0 W/m²3.9 km/hSüd-SW4.7 km/h1020.8 hPa0.0 mm0.0 mm/hwechselhaft
03.09.2026 - 01.55Uhr17.2 °C11.8 °C70 %0.0 W/m²4.0 km/hSüd-SW4.7 km/h1020.8 hPa0.0 mm0.0 mm/hwechselhaft
03.09.2026 - 02.00Uhr17.2 °C11.8 °C70 %0.0 W/m²3.4 km/hSüd-SW4.7 km/h1020.9 hPa0.0 mm0.0 mm/hwechselhaft
03.09.2026 - 02.05Uhr16.8 °C11.6 °C72 %0.0 W/m²4.9 km/hSüdwesten6.5 km/h1020.9 hPa0.0 mm0.0 mm/hwechselhaft
03.09.2026 - 02.10Uhr16.7 °C11.6 °C72 %0.0 W/m²2.5 km/hSüdwesten4.7 km/h1020.9 hPa0.0 mm0.0 mm/hwechselhaft
03.09.2026 - 02.15Uhr16.4 °C11.4 °C72 %0.0 W/m²2.3 km/hSüdwesten3.2 km/h1020.9 hPa0.0 mm0.0 mm/hwechselhaft
03.09.2026 - 02.20Uhr16.5 °C11.6 °C73 %0.0 W/m²0.8 km/hSüdwesten3.2 km/h1020.9 hPa0.0 mm0.0 mm/hwechselhaft
03.09.2026 - 02.25Uhr16.6 °C11.5 °C72 %0.0 W/m²0.0 km/hSüdwesten0.0 km/h1021.0 hPa0.0 mm0.0 mm/hwechselhaft
03.09.2026 - 02.30Uhr16.5 °C11.5 °C72 %0.0 W/m²0.0 km/hSüdwesten0.0 km/h1020.9 hPa0.0 mm0.0 mm/hwechselhaft
03.09.2026 - 02.35Uhr16.2 °C11.4 °C73 %0.0 W/m²0.0 km/hSüdwesten0.0 km/h1020.9 hPa0.0 mm0.0 mm/hwechselhaft
03.09.2026 - 02.40Uhr15.8 °C11.2 °C74 %0.0 W/m²0.0 km/hSüdwesten0.0 km/h1021.0 hPa0.0 mm0.0 mm/hwechselhaft
03.09.2026 - 02.45Uhr15.7 °C11.3 °C75 %0.0 W/m²0.0 km/hSüdwesten0.0 km/h1020.9 hPa0.0 mm0.0 mm/hwechselhaft
03.09.2026 - 02.50Uhr15.7 °C11.2 °C75 %0.0 W/m²0.0 km/hSüdwesten0.0 km/h1021.0 hPa0.0 mm0.0 mm/hwechselhaft
03.09.2026 - 02.55Uhr15.5 °C11.1 °C75 %0.0 W/m²3.8 km/hWesten6.5 km/h1021.0 hPa0.0 mm0.0 mm/hwechselhaft
03.09.2026 - 03.00Uhr15.6 °C11.1 °C74 %0.0 W/m²4.8 km/hWesten6.5 km/h1021.0 hPa0.0 mm0.0 mm/hwechselhaft
03.09.2026 - 03.05Uhr15.8 °C11.2 °C74 %0.0 W/m²4.1 km/hWesten4.7 km/h1021.0 hPa0.0 mm0.0 mm/hwechselhaft
03.09.2026 - 03.10Uhr16.0 °C11.4 °C74 %0.0 W/m²4.6 km/hWest-NW6.5 km/h1021.0 hPa0.0 mm0.0 mm/hwechselhaft
03.09.2026 - 03.15Uhr16.1 °C11.2 °C72 %0.0 W/m²5.4 km/hWest-NW6.5 km/h1021.0 hPa0.0 mm0.0 mm/hwechselhaft
03.09.2026 - 03.20Uhr16.3 °C11.3 °C72 %0.0 W/m²5.0 km/hWesten6.5 km/h1021.1 hPa0.0 mm0.0 mm/hwechselhaft
03.09.2026 - 03.25Uhr16.2 °C11.4 °C73 %0.0 W/m²3.5 km/hWesten4.7 km/h1021.1 hPa0.0 mm0.0 mm/hwechselhaft
03.09.2026 - 03.30Uhr15.9 °C11.2 °C74 %0.0 W/m²3.9 km/hWesten4.7 km/h1021.1 hPa0.0 mm0.0 mm/hwechselhaft
03.09.2026 - 03.35Uhr15.4 °C10.9 °C74 %0.0 W/m²4.5 km/hWesten6.5 km/h1021.1 hPa0.0 mm0.0 mm/hwechselhaft
03.09.2026 - 03.40Uhr15.3 °C11.0 °C75 %0.0 W/m²5.6 km/hWesten6.5 km/h1021.1 hPa0.0 mm0.0 mm/hwechselhaft
03.09.2026 - 03.45Uhr15.5 °C11.2 °C75 %0.0 W/m²5.9 km/hWesten7.9 km/h1021.1 hPa0.0 mm0.0 mm/hwechselhaft
03.09.2026 - 03.50Uhr15.7 °C11.3 °C75 %0.0 W/m²4.6 km/hWesten6.5 km/h1021.0 hPa0.0 mm0.0 mm/hwechselhaft
03.09.2026 - 03.55Uhr15.7 °C11.3 °C75 %0.0 W/m²5.3 km/hWesten6.5 km/h1021.0 hPa0.0 mm0.0 mm/hwechselhaft
03.09.2026 - 04.00Uhr15.5 °C11.1 °C75 %0.0 W/m²6.3 km/hWesten7.9 km/h1021.0 hPa0.0 mm0.0 mm/hwechselhaft
03.09.2026 - 04.05Uhr15.5 °C11.1 °C75 %0.0 W/m²6.9 km/hWesten7.9 km/h1020.9 hPa0.0 mm0.0 mm/hsonnig
03.09.2026 - 04.10Uhr15.5 °C11.1 °C75 %0.0 W/m²6.9 km/hWesten7.9 km/h1021.0 hPa0.0 mm0.0 mm/hsonnig
03.09.2026 - 04.15Uhr15.5 °C11.1 °C75 %0.0 W/m²6.2 km/hWesten7.9 km/h1021.1 hPa0.0 mm0.0 mm/hsonnig
03.09.2026 - 04.20Uhr15.3 °C11.1 °C76 %0.0 W/m²4.9 km/hWesten6.5 km/h1021.0 hPa0.0 mm0.0 mm/hsonnig
03.09.2026 - 04.25Uhr15.3 °C11.1 °C76 %0.0 W/m²4.8 km/hWesten6.5 km/h1021.1 hPa0.0 mm0.0 mm/hsonnig
03.09.2026 - 04.30Uhr15.4 °C11.2 °C76 %0.0 W/m²3.7 km/hWesten4.7 km/h1021.1 hPa0.0 mm0.0 mm/hsonnig
03.09.2026 - 04.35Uhr15.4 °C11.1 °C75 %0.0 W/m²3.9 km/hWesten4.7 km/h1021.0 hPa0.0 mm0.0 mm/hsonnig
03.09.2026 - 04.40Uhr15.0 °C10.9 °C76 %0.0 W/m²2.5 km/hWesten4.7 km/h1021.0 hPa0.0 mm0.0 mm/hsonnig
03.09.2026 - 04.45Uhr15.1 °C11.1 °C77 %0.0 W/m²2.4 km/hWesten3.2 km/h1021.0 hPa0.0 mm0.0 mm/hsonnig
03.09.2026 - 04.50Uhr15.1 °C11.1 °C77 %0.0 W/m²0.0 km/hWesten0.0 km/h1020.9 hPa0.0 mm0.0 mm/hsonnig
03.09.2026 - 04.55Uhr15.3 °C11.1 °C76 %0.0 W/m²0.0 km/hWesten0.0 km/h1020.9 hPa0.0 mm0.0 mm/hsonnig
03.09.2026 - 05.00Uhr15.4 °C11.2 °C76 %0.0 W/m²0.0 km/hWesten0.0 km/h1021.0 hPa0.0 mm0.0 mm/hsonnig
03.09.2026 - 05.05Uhr15.2 °C11.0 °C76 %0.0 W/m²0.0 km/hWesten0.0 km/h1021.0 hPa0.0 mm0.0 mm/hwechselhaft
03.09.2026 - 05.10Uhr15.2 °C11.0 °C76 %0.0 W/m²0.0 km/hWesten0.0 km/h1021.1 hPa0.0 mm0.0 mm/hwechselhaft
03.09.2026 - 05.15Uhr15.0 °C11.0 °C77 %0.0 W/m²0.0 km/hWesten0.0 km/h1021.1 hPa0.0 mm0.0 mm/hwechselhaft
03.09.2026 - 05.20Uhr14.8 °C10.9 °C77 %0.0 W/m²0.0 km/hWesten0.0 km/h1021.1 hPa0.0 mm0.0 mm/hwechselhaft
03.09.2026 - 05.25Uhr14.6 °C10.8 °C78 %0.0 W/m²0.0 km/hWesten0.0 km/h1021.2 hPa0.0 mm0.0 mm/hwechselhaft
03.09.2026 - 05.30Uhr14.5 °C10.9 °C79 %0.0 W/m²0.0 km/hWesten0.0 km/h1021.1 hPa0.0 mm0.0 mm/hwechselhaft
03.09.2026 - 05.35Uhr14.7 °C11.1 °C79 %0.0 W/m²0.0 km/hWesten0.0 km/h1021.1 hPa0.0 mm0.0 mm/hwechselhaft
03.09.2026 - 05.40Uhr14.8 °C11.0 °C78 %0.0 W/m²0.0 km/hWesten0.0 km/h1021.1 hPa0.0 mm0.0 mm/hwechselhaft
03.09.2026 - 05.45Uhr14.5 °C10.7 °C78 %0.0 W/m²0.0 km/hWesten0.0 km/h1021.1 hPa0.0 mm0.0 mm/hwechselhaft
03.09.2026 - 05.50Uhr14.2 °C10.8 °C80 %0.0 W/m²0.0 km/hWesten0.0 km/h1021.1 hPa0.0 mm0.0 mm/hwechselhaft
03.09.2026 - 05.55Uhr14.1 °C10.7 °C80 %0.0 W/m²0.0 km/hWesten0.0 km/h1021.1 hPa0.0 mm0.0 mm/hwechselhaft
03.09.2026 - 06.00Uhr14.1 °C10.7 °C80 %0.0 W/m²0.0 km/hWesten0.0 km/h1020.9 hPa0.0 mm0.0 mm/hwechselhaft
03.09.2026 - 06.05Uhr14.3 °C10.8 °C80 %0.0 W/m²0.0 km/hWesten0.0 km/h1020.9 hPa0.0 mm0.0 mm/hwechselhaft
03.09.2026 - 06.10Uhr14.3 °C10.8 °C80 %0.0 W/m²0.0 km/hWesten0.0 km/h1020.9 hPa0.0 mm0.0 mm/hwechselhaft
03.09.2026 - 06.15Uhr14.3 °C10.8 °C80 %0.0 W/m²0.0 km/hWesten0.0 km/h1021.0 hPa0.0 mm0.0 mm/hwechselhaft
03.09.2026 - 06.20Uhr14.2 °C10.7 °C79 %0.0 W/m²0.0 km/hWesten0.0 km/h1021.0 hPa0.0 mm0.0 mm/hwechselhaft
03.09.2026 - 06.25Uhr14.2 °C10.7 °C80 %0.0 W/m²0.0 km/hWesten0.0 km/h1021.0 hPa0.0 mm0.0 mm/hwechselhaft
03.09.2026 - 06.30Uhr14.0 °C10.6 °C80 %0.0 W/m²0.0 km/hWesten0.0 km/h1021.1 hPa0.0 mm0.0 mm/hwechselhaft
03.09.2026 - 06.35Uhr14.1 °C10.7 °C80 %0.0 W/m²0.0 km/hWesten0.0 km/h1021.1 hPa0.0 mm0.0 mm/hwechselhaft
03.09.2026 - 06.40Uhr13.8 °C10.5 °C80 %0.0 W/m²0.0 km/hWesten0.0 km/h1021.2 hPa0.0 mm0.0 mm/hwechselhaft
03.09.2026 - 06.45Uhr13.5 °C10.5 °C82 %0.0 W/m²0.0 km/hWesten0.0 km/h1021.3 hPa0.0 mm0.0 mm/hwechselhaft
03.09.2026 - 06.50Uhr13.4 °C10.4 °C82 %5.0 W/m²0.0 km/hWesten0.0 km/h1021.3 hPa0.0 mm0.0 mm/hwechselhaft
03.09.2026 - 06.55Uhr13.3 °C10.4 °C82 %5.0 W/m²0.0 km/hWesten0.0 km/h1021.3 hPa0.0 mm0.0 mm/hwechselhaft
03.09.2026 - 07.00Uhr13.3 °C10.3 °C82 %9.0 W/m²0.0 km/hWesten0.0 km/h1021.4 hPa0.0 mm0.0 mm/hwechselhaft
03.09.2026 - 07.05Uhr13.5 °C10.5 °C82 %12.0 W/m²0.0 km/hWesten0.0 km/h1021.4 hPa0.0 mm0.0 mm/hwechselhaft
03.09.2026 - 07.10Uhr13.8 °C10.6 °C81 %16.0 W/m²0.0 km/hWesten0.0 km/h1021.3 hPa0.0 mm0.0 mm/hwechselhaft
03.09.2026 - 07.15Uhr13.8 °C10.6 °C81 %21.0 W/m²0.0 km/hWesten0.0 km/h1021.2 hPa0.0 mm0.0 mm/hwechselhaft
03.09.2026 - 07.20Uhr14.0 °C10.8 °C81 %35.0 W/m²0.0 km/hWesten0.0 km/h1021.3 hPa0.0 mm0.0 mm/hwechselhaft
03.09.2026 - 07.25Uhr14.4 °C10.9 °C80 %37.0 W/m²0.0 km/hNordosten0.0 km/h1021.3 hPa0.0 mm0.0 mm/hwechselhaft
03.09.2026 - 07.30Uhr14.7 °C11.1 °C79 %51.0 W/m²0.0 km/hNordosten0.0 km/h1021.5 hPa0.0 mm0.0 mm/hwechselhaft
03.09.2026 - 07.35Uhr14.9 °C11.0 °C78 %58.0 W/m²0.0 km/hNordosten0.0 km/h1021.5 hPa0.0 mm0.0 mm/hwechselhaft
03.09.2026 - 07.40Uhr14.8 °C11.0 °C78 %62.0 W/m²0.0 km/hNordosten0.0 km/h1021.6 hPa0.0 mm0.0 mm/hwechselhaft
03.09.2026 - 07.45Uhr14.8 °C11.0 °C78 %77.0 W/m²0.0 km/hNordosten0.0 km/h1021.7 hPa0.0 mm0.0 mm/hwechselhaft
03.09.2026 - 07.50Uhr14.9 °C11.1 °C78 %104.0 W/m²0.0 km/hNordosten0.0 km/h1021.7 hPa0.0 mm0.0 mm/hwechselhaft
03.09.2026 - 07.55Uhr15.1 °C11.3 °C78 %109.0 W/m²0.0 km/hNordosten0.0 km/h1021.8 hPa0.0 mm0.0 mm/hwechselhaft
03.09.2026 - 08.00Uhr15.3 °C11.3 °C77 %123.0 W/m²0.0 km/hNordosten0.0 km/h1021.8 hPa0.0 mm0.0 mm/hwechselhaft
03.09.2026 - 08.05Uhr15.5 °C11.5 °C77 %127.0 W/m²1.2 km/hNordosten3.2 km/h1021.8 hPa0.0 mm0.0 mm/hwechselhaft
03.09.2026 - 08.10Uhr15.8 °C11.6 °C76 %141.0 W/m²0.6 km/hNordosten1.4 km/h1021.8 hPa0.0 mm0.0 mm/hwechselhaft
03.09.2026 - 08.15Uhr16.0 °C11.7 °C75 %171.0 W/m²0.0 km/hNordosten0.0 km/h1021.9 hPa0.0 mm0.0 mm/hwechselhaft
03.09.2026 - 08.20Uhr16.2 °C11.8 °C75 %199.0 W/m²0.0 km/hNordosten0.0 km/h1022.0 hPa0.0 mm0.0 mm/hwechselhaft
03.09.2026 - 08.25Uhr16.4 °C11.9 °C75 %214.0 W/m²0.0 km/hNordosten0.0 km/h1022.0 hPa0.0 mm0.0 mm/hwechselhaft
03.09.2026 - 08.30Uhr16.9 °C12.0 °C73 %234.0 W/m²0.1 km/hNordosten1.4 km/h1021.9 hPa0.0 mm0.0 mm/hwechselhaft
03.09.2026 - 08.35Uhr17.3 °C12.2 °C72 %246.0 W/m²1.6 km/hOsten3.2 km/h1021.8 hPa0.0 mm0.0 mm/hwechselhaft
03.09.2026 - 08.40Uhr17.5 °C12.4 °C72 %262.0 W/m²1.8 km/hOst-SO3.2 km/h1021.7 hPa0.0 mm0.0 mm/hwechselhaft
03.09.2026 - 08.45Uhr17.6 °C12.3 °C71 %276.0 W/m²1.9 km/hOst-SO3.2 km/h1021.7 hPa0.0 mm0.0 mm/hwechselhaft
03.09.2026 - 08.50Uhr17.7 °C12.0 °C70 %285.0 W/m²1.0 km/hOst-SO3.2 km/h1021.6 hPa0.0 mm0.0 mm/hwechselhaft
03.09.2026 - 08.55Uhr17.9 °C11.9 °C68 %288.0 W/m²0.2 km/hOst-SO1.4 km/h1021.7 hPa0.0 mm0.0 mm/hwechselhaft
03.09.2026 - 09.00Uhr18.1 °C11.8 °C67 %315.0 W/m²0.2 km/hOst-SO1.4 km/h1021.7 hPa0.0 mm0.0 mm/hwechselhaft
03.09.2026 - 09.05Uhr18.3 °C11.7 °C65 %329.0 W/m²0.5 km/hOst-SO1.4 km/h1021.7 hPa0.0 mm0.0 mm/hwechselhaft
03.09.2026 - 09.10Uhr18.4 °C11.7 °C65 %345.0 W/m²0.9 km/hOst-SO3.2 km/h1021.6 hPa0.0 mm0.0 mm/hwechselhaft
03.09.2026 - 09.15Uhr18.6 °C12.0 °C65 %360.0 W/m²0.0 km/hNordosten0.0 km/h1021.6 hPa0.0 mm0.0 mm/hwechselhaft
03.09.2026 - 09.20Uhr18.8 °C12.1 °C65 %374.0 W/m²0.0 km/hNordosten0.0 km/h1021.6 hPa0.0 mm0.0 mm/hwechselhaft
03.09.2026 - 09.25Uhr19.1 °C12.3 °C65 %390.0 W/m²0.0 km/hNordosten0.0 km/h1021.5 hPa0.0 mm0.0 mm/hwechselhaft
03.09.2026 - 09.30Uhr19.3 °C12.0 °C62 %401.0 W/m²0.0 km/hNordwesten0.0 km/h1021.5 hPa0.0 mm0.0 mm/hwechselhaft
03.09.2026 - 09.35Uhr19.6 °C12.2 °C62 %404.0 W/m²0.0 km/hNordwesten0.0 km/h1021.5 hPa0.0 mm0.0 mm/hwechselhaft
03.09.2026 - 09.40Uhr19.8 °C12.0 °C60 %397.0 W/m²0.0 km/hWest-SW0.0 km/h1021.5 hPa0.0 mm0.0 mm/hwechselhaft
03.09.2026 - 09.45Uhr19.9 °C12.0 °C60 %397.0 W/m²0.0 km/hSüd-SO0.0 km/h1021.6 hPa0.0 mm0.0 mm/hwechselhaft
03.09.2026 - 09.50Uhr20.2 °C11.8 °C59 %403.0 W/m²3.7 km/hWesten7.9 km/h1021.6 hPa0.0 mm0.0 mm/hwechselhaft
03.09.2026 - 09.55Uhr20.5 °C12.1 °C58 %394.0 W/m²5.0 km/hWesten7.9 km/h1021.7 hPa0.0 mm0.0 mm/hwechselhaft
03.09.2026 - 10.00Uhr20.8 °C12.6 °C59 %392.0 W/m²5.6 km/hWesten7.9 km/h1021.8 hPa0.0 mm0.0 mm/hwechselhaft
03.09.2026 - 10.05Uhr20.9 °C12.6 °C59 %385.0 W/m²6.3 km/hWesten7.9 km/h1022.0 hPa0.0 mm0.0 mm/hwechselhaft
03.09.2026 - 10.10Uhr21.3 °C12.7 °C58 %352.0 W/m²7.8 km/hWesten11.2 km/h1022.1 hPa0.0 mm0.0 mm/hwechselhaft
03.09.2026 - 10.15Uhr21.3 °C12.4 °C57 %343.0 W/m²9.6 km/hWest-NW13.0 km/h1022.1 hPa0.0 mm0.0 mm/hwechselhaft
03.09.2026 - 10.20Uhr21.3 °C12.2 °C56 %404.0 W/m²9.5 km/hWest-NW16.2 km/h1022.0 hPa0.0 mm0.0 mm/hwechselhaft
03.09.2026 - 10.25Uhr21.4 °C12.2 °C56 %482.0 W/m²8.6 km/hNordwesten13.0 km/h1021.9 hPa0.0 mm0.0 mm/hwechselhaft
03.09.2026 - 10.30Uhr21.4 °C11.9 °C55 %529.0 W/m²6.1 km/hWest-SW9.7 km/h1021.7 hPa0.0 mm0.0 mm/hwechselhaft
03.09.2026 - 10.35Uhr21.4 °C11.9 °C55 %559.0 W/m²7.7 km/hWesten14.4 km/h1021.7 hPa0.0 mm0.0 mm/hwechselhaft
03.09.2026 - 10.40Uhr21.7 °C11.7 °C53 %570.0 W/m²9.3 km/hWest-NW13.0 km/h1021.7 hPa0.0 mm0.0 mm/hwechselhaft
03.09.2026 - 10.45Uhr21.8 °C11.8 °C53 %580.0 W/m²7.8 km/hWest-NW13.0 km/h1021.8 hPa0.0 mm0.0 mm/hwechselhaft
03.09.2026 - 10.50Uhr22.0 °C12.0 °C53 %591.0 W/m²8.5 km/hWest-NW11.2 km/h1021.8 hPa0.0 mm0.0 mm/hwechselhaft
03.09.2026 - 10.55Uhr22.1 °C12.1 °C53 %601.0 W/m²8.6 km/hWesten14.4 km/h1021.9 hPa0.0 mm0.0 mm/hwechselhaft
03.09.2026 - 11.00Uhr22.2 °C12.0 °C52 %608.0 W/m²8.4 km/hWest-NW14.4 km/h1021.9 hPa0.0 mm0.0 mm/hwechselhaft
03.09.2026 - 11.05Uhr22.1 °C11.9 °C52 %621.0 W/m²8.2 km/hNordwesten14.4 km/h1021.8 hPa0.0 mm0.0 mm/hsonnig
03.09.2026 - 11.10Uhr22.4 °C12.1 °C52 %631.0 W/m²8.9 km/hWesten14.4 km/h1021.8 hPa0.0 mm0.0 mm/hsonnig
03.09.2026 - 11.15Uhr22.2 °C11.9 °C52 %638.0 W/m²3.8 km/hWest-SW9.7 km/h1021.8 hPa0.0 mm0.0 mm/hsonnig
03.09.2026 - 11.20Uhr22.4 °C12.0 °C52 %633.0 W/m²9.2 km/hWest-SW13.0 km/h1021.8 hPa0.0 mm0.0 mm/hsonnig
03.09.2026 - 11.25Uhr22.4 °C11.8 °C51 %649.0 W/m²8.9 km/hWesten14.4 km/h1021.8 hPa0.0 mm0.0 mm/hsonnig
03.09.2026 - 11.30Uhr22.5 °C11.9 °C51 %661.0 W/m²6.1 km/hWesten11.2 km/h1021.8 hPa0.0 mm0.0 mm/hsonnig
03.09.2026 - 11.35Uhr22.6 °C11.9 °C51 %671.0 W/m²8.5 km/hNordwesten16.2 km/h1021.7 hPa0.0 mm0.0 mm/hsonnig
03.09.2026 - 11.40Uhr22.9 °C11.9 °C50 %682.0 W/m²9.1 km/hWest-NW20.9 km/h1021.8 hPa0.0 mm0.0 mm/hsonnig
03.09.2026 - 11.45Uhr23.1 °C12.0 °C50 %701.0 W/m²8.2 km/hWesten17.6 km/h1021.8 hPa0.0 mm0.0 mm/hsonnig
03.09.2026 - 11.50Uhr22.9 °C11.9 °C50 %696.0 W/m²8.8 km/hNorden14.4 km/h1021.7 hPa0.0 mm0.0 mm/hsonnig
03.09.2026 - 11.55Uhr23.1 °C11.9 °C50 %705.0 W/m²8.5 km/hWesten16.2 km/h1021.6 hPa0.0 mm0.0 mm/hsonnig
03.09.2026 - 12.00Uhr23.3 °C12.1 °C49 %687.0 W/m²8.2 km/hWest-NW16.2 km/h1021.6 hPa0.0 mm0.0 mm/hsonnig
03.09.2026 - 12.05Uhr23.3 °C12.1 °C49 %714.0 W/m²11.2 km/hWest-NW19.4 km/h1021.6 hPa0.0 mm0.0 mm/hwechselhaft
03.09.2026 - 12.10Uhr23.2 °C11.9 °C49 %721.0 W/m²8.3 km/hNordwesten17.6 km/h1021.6 hPa0.0 mm0.0 mm/hwechselhaft
03.09.2026 - 12.15Uhr23.4 °C12.5 °C50 %729.0 W/m²8.2 km/hNordwesten13.0 km/h1021.6 hPa0.0 mm0.0 mm/hwechselhaft
03.09.2026 - 12.20Uhr24.1 °C12.7 °C49 %744.0 W/m²13.8 km/hWest-NW22.7 km/h1021.5 hPa0.0 mm0.0 mm/hwechselhaft
03.09.2026 - 12.25Uhr24.0 °C12.3 °C48 %726.0 W/m²9.2 km/hNordwesten17.6 km/h1021.5 hPa0.0 mm0.0 mm/hwechselhaft
03.09.2026 - 12.30Uhr24.0 °C12.6 °C49 %740.0 W/m²13.3 km/hNordwesten25.9 km/h1021.5 hPa0.0 mm0.0 mm/hwechselhaft
03.09.2026 - 12.35Uhr24.4 °C12.6 °C48 %745.0 W/m²15.1 km/hNordwesten22.7 km/h1021.6 hPa0.0 mm0.0 mm/hwechselhaft
03.09.2026 - 12.40Uhr24.3 °C12.4 °C48 %766.0 W/m²12.4 km/hWesten20.9 km/h1021.5 hPa0.0 mm0.0 mm/hwechselhaft
03.09.2026 - 12.45Uhr24.2 °C12.3 °C47 %738.0 W/m²9.2 km/hWesten25.9 km/h1021.4 hPa0.0 mm0.0 mm/hwechselhaft
03.09.2026 - 12.50Uhr24.5 °C12.3 °C47 %768.0 W/m²13.8 km/hWesten22.7 km/h1021.4 hPa0.0 mm0.0 mm/hwechselhaft
03.09.2026 - 12.55Uhr24.6 °C12.0 °C46 %756.0 W/m²11.8 km/hWesten22.7 km/h1021.3 hPa0.0 mm0.0 mm/hwechselhaft
03.09.2026 - 13.00Uhr25.0 °C12.1 °C45 %768.0 W/m²16.8 km/hWest-NW22.7 km/h1021.3 hPa0.0 mm0.0 mm/hwechselhaft
03.09.2026 - 13.05Uhr25.0 °C11.7 °C43 %761.0 W/m²13.9 km/hNordwesten22.7 km/h1021.3 hPa0.0 mm0.0 mm/hsonnig
03.09.2026 - 13.10Uhr25.4 °C11.8 °C43 %768.0 W/m²14.5 km/hWest-NW22.7 km/h1021.4 hPa0.0 mm0.0 mm/hsonnig
03.09.2026 - 13.15Uhr24.9 °C11.7 °C44 %766.0 W/m²9.3 km/hNordwesten13.0 km/h1021.3 hPa0.0 mm0.0 mm/hsonnig
03.09.2026 - 13.20Uhr25.1 °C12.3 °C45 %784.0 W/m²10.4 km/hWest-NW17.6 km/h1021.2 hPa0.0 mm0.0 mm/hsonnig
03.09.2026 - 13.25Uhr25.2 °C11.5 °C42 %780.0 W/m²9.4 km/hWesten20.9 km/h1021.2 hPa0.0 mm0.0 mm/hsonnig
03.09.2026 - 13.30Uhr25.5 °C11.3 °C41 %779.0 W/m²15.0 km/hWest-SW24.1 km/h1021.2 hPa0.0 mm0.0 mm/hsonnig
03.09.2026 - 13.35Uhr25.4 °C11.1 °C41 %747.0 W/m²9.0 km/hWesten14.4 km/h1021.3 hPa0.0 mm0.0 mm/hsonnig
03.09.2026 - 13.40Uhr25.1 °C11.2 °C42 %712.0 W/m²10.6 km/hWesten17.6 km/h1021.3 hPa0.0 mm0.0 mm/hsonnig
03.09.2026 - 13.45Uhr25.2 °C11.8 °C43 %758.0 W/m²13.3 km/hNordwesten25.9 km/h1021.3 hPa0.0 mm0.0 mm/hsonnig
03.09.2026 - 13.50Uhr25.4 °C11.8 °C43 %816.0 W/m²14.1 km/hWest-NW22.7 km/h1021.1 hPa0.0 mm0.0 mm/hsonnig
03.09.2026 - 13.55Uhr25.1 °C11.2 °C42 %772.0 W/m²8.9 km/hSüdwesten16.2 km/h1021.1 hPa0.0 mm0.0 mm/hsonnig
03.09.2026 - 14.00Uhr24.7 °C11.1 °C43 %663.0 W/m²6.7 km/hSüdwesten14.4 km/h1021.0 hPa0.0 mm0.0 mm/hsonnig
03.09.2026 - 14.05Uhr25.1 °C11.3 °C42 %731.0 W/m²10.2 km/hWest-SW17.6 km/h1020.9 hPa0.0 mm0.0 mm/hwechselhaft
03.09.2026 - 14.10Uhr25.5 °C11.5 °C42 %758.0 W/m²8.1 km/hWesten14.4 km/h1020.8 hPa0.0 mm0.0 mm/hwechselhaft
03.09.2026 - 14.15Uhr25.6 °C11.0 °C40 %754.0 W/m²9.4 km/hWesten19.4 km/h1020.9 hPa0.0 mm0.0 mm/hwechselhaft
03.09.2026 - 14.20Uhr25.9 °C11.4 °C40 %756.0 W/m²13.2 km/hWest-NW17.6 km/h1020.7 hPa0.0 mm0.0 mm/hwechselhaft
03.09.2026 - 14.25Uhr25.8 °C10.9 °C39 %737.0 W/m²7.7 km/hWest-NW17.6 km/h1020.8 hPa0.0 mm0.0 mm/hwechselhaft
03.09.2026 - 14.30Uhr25.8 °C11.1 °C40 %733.0 W/m²11.4 km/hWesten20.9 km/h1020.9 hPa0.0 mm0.0 mm/hwechselhaft
03.09.2026 - 14.35Uhr26.0 °C10.9 °C39 %740.0 W/m²11.1 km/hWesten19.4 km/h1020.8 hPa0.0 mm0.0 mm/hwechselhaft
03.09.2026 - 14.40Uhr25.6 °C10.5 °C39 %756.0 W/m²5.7 km/hSüd-SW13.0 km/h1020.7 hPa0.0 mm0.0 mm/hwechselhaft
03.09.2026 - 14.45Uhr26.2 °C11.2 °C39 %763.0 W/m²12.0 km/hWesten20.9 km/h1020.6 hPa0.0 mm0.0 mm/hwechselhaft
03.09.2026 - 14.50Uhr25.9 °C10.5 °C38 %722.0 W/m²9.6 km/hWest-SW16.2 km/h1020.6 hPa0.0 mm0.0 mm/hwechselhaft
03.09.2026 - 14.55Uhr25.9 °C10.7 °C38 %714.0 W/m²9.4 km/hWesten16.2 km/h1020.5 hPa0.0 mm0.0 mm/hwechselhaft
03.09.2026 - 15.00Uhr26.5 °C10.3 °C36 %708.0 W/m²13.3 km/hWest-SW19.4 km/h1020.4 hPa0.0 mm0.0 mm/hwechselhaft
03.09.2026 - 15.05Uhr26.2 °C10.3 °C37 %707.0 W/m²9.8 km/hWest-SW16.2 km/h1020.5 hPa0.0 mm0.0 mm/hsonnig
03.09.2026 - 15.10Uhr26.3 °C10.4 °C37 %701.0 W/m²9.2 km/hSüdwesten17.6 km/h1020.5 hPa0.0 mm0.0 mm/hsonnig
03.09.2026 - 15.15Uhr26.4 °C10.2 °C36 %628.0 W/m²13.9 km/hSüdwesten27.4 km/h1020.3 hPa0.0 mm0.0 mm/hsonnig
03.09.2026 - 15.20Uhr26.7 °C10.5 °C36 %737.0 W/m²16.5 km/hWesten25.9 km/h1020.3 hPa0.0 mm0.0 mm/hsonnig
03.09.2026 - 15.25Uhr26.8 °C10.7 °C37 %737.0 W/m²14.9 km/hWesten22.7 km/h1020.4 hPa0.0 mm0.0 mm/hsonnig
03.09.2026 - 15.30Uhr26.9 °C10.8 °C36 %737.0 W/m²14.2 km/hWesten19.4 km/h1020.4 hPa0.0 mm0.0 mm/hsonnig
03.09.2026 - 15.35Uhr26.9 °C11.0 °C37 %657.0 W/m²14.7 km/hWest-SW19.4 km/h1020.3 hPa0.0 mm0.0 mm/hsonnig
03.09.2026 - 15.40Uhr26.8 °C11.3 °C38 %682.0 W/m²15.7 km/hWesten22.7 km/h1020.3 hPa0.0 mm0.0 mm/hsonnig
03.09.2026 - 15.45Uhr27.1 °C11.4 °C38 %670.0 W/m²12.5 km/hWesten19.4 km/h1020.2 hPa0.0 mm0.0 mm/hsonnig
03.09.2026 - 15.50Uhr27.3 °C11.5 °C38 %649.0 W/m²14.3 km/hWest-NW20.9 km/h1020.2 hPa0.0 mm0.0 mm/hsonnig
03.09.2026 - 15.55Uhr27.0 °C11.5 °C38 %682.0 W/m²12.3 km/hWesten17.6 km/h1020.1 hPa0.0 mm0.0 mm/hsonnig
03.09.2026 - 16.00Uhr27.2 °C11.6 °C38 %664.0 W/m²11.0 km/hWesten16.2 km/h1020.1 hPa0.0 mm0.0 mm/hsonnig
03.09.2026 - 16.05Uhr27.3 °C11.4 °C37 %652.0 W/m²15.2 km/hWest-NW20.9 km/h1020.1 hPa0.0 mm0.0 mm/hsonnig
03.09.2026 - 16.10Uhr27.1 °C11.2 °C37 %626.0 W/m²9.6 km/hNordwesten16.2 km/h1020.2 hPa0.0 mm0.0 mm/hsonnig
03.09.2026 - 16.15Uhr27.1 °C11.8 °C38 %596.0 W/m²14.5 km/hWesten22.7 km/h1020.2 hPa0.0 mm0.0 mm/hsonnig
03.09.2026 - 16.20Uhr27.0 °C11.6 °C38 %578.0 W/m²12.2 km/hWest-NW20.9 km/h1020.1 hPa0.0 mm0.0 mm/hsonnig
03.09.2026 - 16.25Uhr27.2 °C11.7 °C38 %566.0 W/m²12.9 km/hWest-NW17.6 km/h1020.1 hPa0.0 mm0.0 mm/hsonnig
03.09.2026 - 16.30Uhr27.6 °C11.8 °C38 %561.0 W/m²11.7 km/hWest-SW17.6 km/h1020.1 hPa0.0 mm0.0 mm/hsonnig
03.09.2026 - 16.35Uhr27.2 °C11.6 °C38 %564.0 W/m²12.7 km/hWesten22.7 km/h1020.1 hPa0.0 mm0.0 mm/hsonnig
03.09.2026 - 16.40Uhr27.2 °C11.5 °C38 %541.0 W/m²12.9 km/hWest-SW19.4 km/h1020.1 hPa0.0 mm0.0 mm/hsonnig
03.09.2026 - 16.45Uhr26.8 °C11.3 °C38 %541.0 W/m²11.1 km/hWest-SW17.6 km/h1020.1 hPa0.0 mm0.0 mm/hsonnig
03.09.2026 - 16.50Uhr26.9 °C11.7 °C39 %559.0 W/m²12.9 km/hWesten20.9 km/h1020.1 hPa0.0 mm0.0 mm/hsonnig
03.09.2026 - 16.55Uhr27.1 °C11.9 °C39 %487.0 W/m²13.7 km/hWesten20.9 km/h1020.1 hPa0.0 mm0.0 mm/hsonnig
03.09.2026 - 17.00Uhr26.7 °C11.5 °C39 %483.0 W/m²8.9 km/hWesten14.4 km/h1020.2 hPa0.0 mm0.0 mm/hsonnig
03.09.2026 - 17.05Uhr27.0 °C12.2 °C40 %464.0 W/m²13.6 km/hWest-NW19.4 km/h1020.1 hPa0.0 mm0.0 mm/hsonnig
03.09.2026 - 17.10Uhr27.1 °C12.1 °C39 %399.0 W/m²13.8 km/hWest-NW22.7 km/h1020.1 hPa0.0 mm0.0 mm/hsonnig
03.09.2026 - 17.15Uhr26.8 °C11.8 °C39 %434.0 W/m²17.3 km/hNordwesten24.1 km/h1020.1 hPa0.0 mm0.0 mm/hsonnig
03.09.2026 - 17.20Uhr26.5 °C12.0 °C40 %353.0 W/m²14.8 km/hNordwesten20.9 km/h1020.3 hPa0.0 mm0.0 mm/hsonnig
03.09.2026 - 17.25Uhr26.3 °C12.0 °C41 %322.0 W/m²12.6 km/hNordwesten17.6 km/h1020.3 hPa0.0 mm0.0 mm/hsonnig
03.09.2026 - 17.30Uhr26.2 °C12.0 °C41 %448.0 W/m²12.2 km/hNordwesten19.4 km/h1020.3 hPa0.0 mm0.0 mm/hsonnig
03.09.2026 - 17.35Uhr26.4 °C11.8 °C40 %439.0 W/m²13.7 km/hWest-NW19.4 km/h1020.2 hPa0.0 mm0.0 mm/hsonnig
03.09.2026 - 17.40Uhr26.7 °C11.6 °C39 %427.0 W/m²14.5 km/hWest-NW19.4 km/h1020.1 hPa0.0 mm0.0 mm/hsonnig
03.09.2026 - 17.45Uhr26.5 °C11.5 °C39 %378.0 W/m²12.2 km/hWest-NW19.4 km/h1020.1 hPa0.0 mm0.0 mm/hsonnig
03.09.2026 - 17.50Uhr26.2 °C11.6 °C40 %332.0 W/m²13.1 km/hWest-NW19.4 km/h1020.1 hPa0.0 mm0.0 mm/hsonnig
03.09.2026 - 17.55Uhr26.1 °C11.7 °C40 %339.0 W/m²12.7 km/hNordwesten16.2 km/h1020.1 hPa0.0 mm0.0 mm/hsonnig
03.09.2026 - 18.00Uhr26.1 °C11.7 °C41 %288.0 W/m²13.8 km/hWest-NW19.4 km/h1020.1 hPa0.0 mm0.0 mm/hsonnig
03.09.2026 - 18.05Uhr25.9 °C11.5 °C41 %246.0 W/m²13.5 km/hWest-NW19.4 km/h1020.1 hPa0.0 mm0.0 mm/hsonnig
03.09.2026 - 18.10Uhr25.9 °C11.8 °C42 %262.0 W/m²10.4 km/hWest-NW14.4 km/h1020.2 hPa0.0 mm0.0 mm/hsonnig
03.09.2026 - 18.15Uhr25.8 °C11.8 °C42 %260.0 W/m²11.1 km/hWest-NW16.2 km/h1020.2 hPa0.0 mm0.0 mm/hsonnig
03.09.2026 - 18.20Uhr25.9 °C12.1 °C42 %255.0 W/m²10.9 km/hWest-NW14.4 km/h1020.3 hPa0.0 mm0.0 mm/hsonnig
03.09.2026 - 18.25Uhr25.7 °C12.0 °C42 %258.0 W/m²9.9 km/hWest-NW14.4 km/h1020.3 hPa0.0 mm0.0 mm/hsonnig
03.09.2026 - 18.30Uhr25.6 °C12.0 °C43 %221.0 W/m²11.4 km/hWest-NW17.6 km/h1020.2 hPa0.0 mm0.0 mm/hsonnig
03.09.2026 - 18.35Uhr25.5 °C12.1 °C43 %227.0 W/m²12.4 km/hWest-NW17.6 km/h1020.2 hPa0.0 mm0.0 mm/hsonnig
03.09.2026 - 18.40Uhr25.4 °C11.9 °C43 %209.0 W/m²11.7 km/hWest-NW16.2 km/h1020.3 hPa0.0 mm0.0 mm/hsonnig
03.09.2026 - 18.45Uhr25.4 °C12.0 °C43 %185.0 W/m²12.5 km/hWest-NW17.6 km/h1020.3 hPa0.0 mm0.0 mm/hsonnig
03.09.2026 - 18.50Uhr25.2 °C12.0 °C44 %109.0 W/m²12.5 km/hWest-NW17.6 km/h1020.3 hPa0.0 mm0.0 mm/hsonnig
03.09.2026 - 18.55Uhr24.9 °C12.0 °C44 %120.0 W/m²12.0 km/hWest-NW17.6 km/h1020.3 hPa0.0 mm0.0 mm/hsonnig
03.09.2026 - 19.00Uhr24.8 °C12.1 °C45 %113.0 W/m²13.0 km/hWest-NW17.6 km/h1020.2 hPa0.0 mm0.0 mm/hsonnig
03.09.2026 - 19.05Uhr24.7 °C12.1 °C45 %98.0 W/m²12.1 km/hWest-NW16.2 km/h1020.3 hPa0.0 mm0.0 mm/hsonnig
03.09.2026 - 19.10Uhr24.6 °C12.2 °C46 %81.0 W/m²11.7 km/hWest-NW16.2 km/h1020.3 hPa0.0 mm0.0 mm/hsonnig
03.09.2026 - 19.15Uhr24.4 °C12.3 °C47 %84.0 W/m²10.5 km/hWest-NW14.4 km/h1020.2 hPa0.0 mm0.0 mm/hsonnig
03.09.2026 - 19.20Uhr24.3 °C12.3 °C47 %72.0 W/m²8.9 km/hWest-NW11.2 km/h1020.3 hPa0.0 mm0.0 mm/hsonnig
03.09.2026 - 19.25Uhr24.3 °C12.3 °C47 %60.0 W/m²8.7 km/hWest-NW13.0 km/h1020.3 hPa0.0 mm0.0 mm/hsonnig
03.09.2026 - 19.30Uhr24.2 °C12.4 °C48 %49.0 W/m²8.0 km/hWest-NW13.0 km/h1020.3 hPa0.0 mm0.0 mm/hsonnig
03.09.2026 - 19.35Uhr24.1 °C12.4 °C48 %39.0 W/m²7.1 km/hWesten11.2 km/h1020.3 hPa0.0 mm0.0 mm/hsonnig
03.09.2026 - 19.40Uhr23.9 °C12.3 °C48 %32.0 W/m²6.4 km/hWesten9.7 km/h1020.3 hPa0.0 mm0.0 mm/hsonnig
03.09.2026 - 19.45Uhr23.8 °C12.3 °C49 %23.0 W/m²8.4 km/hWesten13.0 km/h1020.3 hPa0.0 mm0.0 mm/hsonnig
03.09.2026 - 19.50Uhr23.7 °C12.4 °C49 %18.0 W/m²9.7 km/hWesten14.4 km/h1020.3 hPa0.0 mm0.0 mm/hsonnig
03.09.2026 - 19.55Uhr23.6 °C12.5 °C50 %12.0 W/m²6.5 km/hWesten11.2 km/h1020.3 hPa0.0 mm0.0 mm/hsonnig
03.09.2026 - 20.00Uhr23.4 °C12.5 °C50 %7.0 W/m²3.9 km/hWest-SW7.9 km/h1020.4 hPa0.0 mm0.0 mm/hsonnig
03.09.2026 - 20.05Uhr23.1 °C12.5 °C51 %7.0 W/m²2.8 km/hSüdwesten4.7 km/h1020.4 hPa0.0 mm0.0 mm/hwechselhaft
03.09.2026 - 20.10Uhr22.8 °C12.4 °C52 %5.0 W/m²4.6 km/hSüdwesten7.9 km/h1020.4 hPa0.0 mm0.0 mm/hwechselhaft
03.09.2026 - 20.15Uhr22.7 °C12.5 °C53 %5.0 W/m²4.0 km/hWest-SW6.5 km/h1020.4 hPa0.0 mm0.0 mm/hwechselhaft
03.09.2026 - 20.20Uhr22.6 °C12.5 °C53 %0.0 W/m²3.6 km/hWesten6.5 km/h1020.4 hPa0.0 mm0.0 mm/hwechselhaft
03.09.2026 - 20.25Uhr22.5 °C12.4 °C53 %0.0 W/m²4.4 km/hWest-SW6.5 km/h1020.5 hPa0.0 mm0.0 mm/hwechselhaft
03.09.2026 - 20.30Uhr22.3 °C12.5 °C54 %0.0 W/m²5.1 km/hSüdwesten7.9 km/h1020.5 hPa0.0 mm0.0 mm/hwechselhaft
03.09.2026 - 20.35Uhr22.1 °C12.5 °C55 %0.0 W/m²4.8 km/hSüdwesten7.9 km/h1020.6 hPa0.0 mm0.0 mm/hwechselhaft
03.09.2026 - 20.40Uhr21.8 °C12.5 °C55 %0.0 W/m²6.0 km/hWest-SW7.9 km/h1020.7 hPa0.0 mm0.0 mm/hwechselhaft
03.09.2026 - 20.45Uhr21.7 °C12.5 °C56 %0.0 W/m²6.3 km/hSüdwesten9.7 km/h1020.7 hPa0.0 mm0.0 mm/hwechselhaft
03.09.2026 - 20.50Uhr21.6 °C12.5 °C56 %0.0 W/m²6.4 km/hWest-SW9.7 km/h1020.7 hPa0.0 mm0.0 mm/hwechselhaft
03.09.2026 - 20.55Uhr21.5 °C12.6 °C57 %0.0 W/m²4.7 km/hWest-SW7.9 km/h1020.8 hPa0.0 mm0.0 mm/hwechselhaft
03.09.2026 - 21.00Uhr21.3 °C12.6 °C58 %0.0 W/m²2.1 km/hWest-SW6.5 km/h1020.9 hPa0.0 mm0.0 mm/hwechselhaft
03.09.2026 - 21.05Uhr21.0 °C12.6 °C59 %0.0 W/m²4.6 km/hWesten7.9 km/h1021.0 hPa0.0 mm0.0 mm/hwechselhaft
03.09.2026 - 21.10Uhr20.8 °C12.6 °C60 %0.0 W/m²5.8 km/hWesten7.9 km/h1021.0 hPa0.0 mm0.0 mm/hwechselhaft
03.09.2026 - 21.15Uhr20.6 °C12.7 °C61 %0.0 W/m²6.2 km/hWest-SW7.9 km/h1021.1 hPa0.0 mm0.0 mm/hwechselhaft
03.09.2026 - 21.20Uhr20.4 °C12.6 °C61 %0.0 W/m²4.3 km/hWesten6.5 km/h1021.1 hPa0.0 mm0.0 mm/hwechselhaft
03.09.2026 - 21.25Uhr20.2 °C12.7 °C62 %0.0 W/m²4.3 km/hWesten6.5 km/h1021.1 hPa0.0 mm0.0 mm/hwechselhaft
03.09.2026 - 21.30Uhr20.3 °C12.5 °C61 %0.0 W/m²4.1 km/hWesten7.9 km/h1021.1 hPa0.0 mm0.0 mm/hwechselhaft
03.09.2026 - 21.35Uhr20.4 °C12.6 °C61 %0.0 W/m²1.9 km/hWesten4.7 km/h1021.1 hPa0.0 mm0.0 mm/hwechselhaft
03.09.2026 - 21.40Uhr20.3 °C12.5 °C61 %0.0 W/m²0.6 km/hWesten1.4 km/h1021.2 hPa0.0 mm0.0 mm/hwechselhaft
03.09.2026 - 21.45Uhr20.2 °C12.6 °C61 %0.0 W/m²0.1 km/hWesten1.4 km/h1021.2 hPa0.0 mm0.0 mm/hwechselhaft
03.09.2026 - 21.50Uhr20.2 °C12.6 °C62 %0.0 W/m²1.8 km/hOst-SO6.5 km/h1021.2 hPa0.0 mm0.0 mm/hwechselhaft
03.09.2026 - 21.55Uhr20.0 °C12.5 °C62 %0.0 W/m²1.2 km/hOst-SO3.2 km/h1021.2 hPa0.0 mm0.0 mm/hwechselhaft
03.09.2026 - 22.00Uhr19.9 °C12.4 °C62 %0.0 W/m²0.4 km/hOst-SO1.4 km/h1021.2 hPa0.0 mm0.0 mm/hwechselhaft
03.09.2026 - 22.05Uhr19.8 °C12.5 °C62 %0.0 W/m²0.1 km/hOst-SO1.4 km/h1021.2 hPa0.0 mm0.0 mm/hwechselhaft
03.09.2026 - 22.10Uhr19.9 °C12.4 °C62 %0.0 W/m²1.5 km/hNordwesten3.2 km/h1021.3 hPa0.0 mm0.0 mm/hwechselhaft
03.09.2026 - 22.15Uhr19.9 °C12.3 °C62 %0.0 W/m²0.0 km/hNordwesten0.0 km/h1021.3 hPa0.0 mm0.0 mm/hwechselhaft
03.09.2026 - 22.20Uhr20.0 °C12.5 °C62 %0.0 W/m²0.0 km/hNordwesten0.0 km/h1021.2 hPa0.0 mm0.0 mm/hwechselhaft
03.09.2026 - 22.25Uhr19.9 °C12.4 °C62 %0.0 W/m²0.8 km/hNordwesten3.2 km/h1021.3 hPa0.0 mm0.0 mm/hwechselhaft
03.09.2026 - 22.30Uhr19.7 °C12.5 °C63 %0.0 W/m²0.6 km/hNordosten3.2 km/h1021.3 hPa0.0 mm0.0 mm/hwechselhaft
03.09.2026 - 22.35Uhr19.4 °C12.4 °C64 %0.0 W/m²0.7 km/hNordosten1.4 km/h1021.3 hPa0.0 mm0.0 mm/hwechselhaft
03.09.2026 - 22.40Uhr19.2 °C12.5 °C65 %0.0 W/m²0.0 km/hNordosten0.0 km/h1021.3 hPa0.0 mm0.0 mm/hwechselhaft
03.09.2026 - 22.45Uhr18.8 °C12.4 °C66 %0.0 W/m²0.0 km/hNordosten0.0 km/h1021.4 hPa0.0 mm0.0 mm/hwechselhaft
03.09.2026 - 22.50Uhr18.6 °C12.4 °C67 %0.0 W/m²0.0 km/hNordosten0.0 km/h1021.5 hPa0.0 mm0.0 mm/hwechselhaft
03.09.2026 - 22.55Uhr18.3 °C12.3 °C68 %0.0 W/m²0.0 km/hNordosten0.0 km/h1021.4 hPa0.0 mm0.0 mm/hwechselhaft
03.09.2026 - 23.00Uhr18.2 °C12.2 °C68 %0.0 W/m²0.0 km/hNordosten0.0 km/h1021.4 hPa0.0 mm0.0 mm/hwechselhaft
03.09.2026 - 23.05Uhr18.2 °C12.2 °C68 %0.0 W/m²0.0 km/hNordosten0.0 km/h1021.4 hPa0.0 mm0.0 mm/hwechselhaft
03.09.2026 - 23.10Uhr18.4 °C12.2 °C67 %0.0 W/m²0.0 km/hNordosten0.0 km/h1021.4 hPa0.0 mm0.0 mm/hwechselhaft